Penticton, British Columbia

1:01 PM PDT on April 21, 2018 (GMT -0700)
Penticton

Weather History for CYYF - October, 2011

Change the Weather History Date:

Thursday, October 6, 2011

  Actual Average Record
Temperature  
Mean Temperature 55 °F -  
Max Temperature 63 °F 55 °F 78 °F (2003)
Min Temperature 46 °F 36 °F 28 °F (2000)
Degree Days  
Heating Degree Days 10    
Growing Degree Days 5 (Base 50)    
Moisture  
Dew Point 46 °F    
Average Humidity 73    
Maximum Humidity 94    
Minimum Humidity 48    
Precipitation  
Precipitation 0.02 in 0.02 in - ()
Sea Level Pressure  
Sea Level Pressure 29.80 in    
Wind  
Wind Speed 4 mph ()    
Max Wind Speed 9 mph    
Max Gust Speed -    
Visibility 15.0 miles    
Events Rain    
Averages and records for this station are not official NWS values.
T = Trace of Precipitation, MM = Missing Value Source: Averaged Metar Reports

Daily Weather History Graph

Daily Weather History Graph

Search for Another Location

Airport or City:

Astronomy

Oct. 06, 2011 Rise Set
Actual Time 7:05 AM PDT 6:26 PM PDT
Civil Twilight 6:33 AM PDT 6:58 PM PDT
Nautical Twilight 5:56 AM PDT 7:35 PM PDT
Astronomical Twilight 5:18 AM PDT 8:12 PM PDT
Moon 4:05 PM PDT (10/6) 1:32 AM PDT (10/6)
Length of Visible Light 12h 24m
Length of Day
11h 21m
Waxing Gibbous, 76% of the Moon is Illuminated
Oct 6
Waxing Gibbous
Oct 11
Full
Oct 19
Last Quarter
Oct 26
New
Nov 2
First Quarter

Hourly Weather History & Observations

Time (PDT) Temp. Dew Point Humidity Pressure Visibility Wind Dir Wind Speed Gust Speed Precip Events Conditions
12:00 AM 50.0 °F 48.2 °F 94% 29.69 in 15.0 mi North 2.3 mph - N/A Rain Light Rain Showers
1:00 AM 51.8 °F 48.2 °F 88% 29.70 in 15.0 mi NNW 4.6 mph - N/A Rain Light Rain Showers
1:28 AM - - N/A% - 15.0 mi NNW 3.5 mph - N/A   Overcast
2:00 AM 51.8 °F 48.2 °F 88% 29.70 in 15.0 mi NNW 4.6 mph - N/A   Overcast
4:00 AM 51.8 °F 48.2 °F 88% 29.72 in 15.0 mi North 4.6 mph - N/A   Overcast
5:00 AM 51 °F 47 °F 82% 29.73 in 15 mi NNW 4.6 mph - -   Partly Cloudy
5:00 AM 51.8 °F 46.4 °F 82% 29.73 in 15.0 mi NNW 3.5 mph - N/A   Overcast
7:00 AM 51.8 °F 46.4 °F 82% 29.77 in 15.0 mi North 5.8 mph - N/A   Overcast
8:00 AM 51.8 °F 46.4 °F 82% 29.78 in 15.0 mi NNW 4.6 mph - N/A   Overcast
9:00 AM 55.4 °F 46.4 °F 72% 29.80 in 15.0 mi NNE 4.6 mph - N/A   Mostly Cloudy
10:00 AM 57.2 °F 46.4 °F 67% 29.81 in 15.0 mi NNE 6.9 mph - N/A   Mostly Cloudy
11:00 AM 58 °F 46 °F 55% 29.82 in 15 mi NNE 9.2 mph - -   Scattered Clouds
11:00 AM 57.2 °F 46.4 °F 67% 29.82 in 15.0 mi NNE 9.2 mph - N/A   Mostly Cloudy
12:00 PM 59.0 °F 44.6 °F 59% 29.82 in 15.0 mi North 8.1 mph - N/A   Mostly Cloudy
2:00 PM 62.6 °F 42.8 °F 48% 29.80 in 15.0 mi North 8.1 mph - N/A   Mostly Cloudy
3:00 PM 60.8 °F 46.4 °F 59% 29.81 in 15.0 mi North 9.2 mph - N/A   Mostly Cloudy
4:00 PM 60.8 °F 46.4 °F 59% 29.81 in 15.0 mi North 5.8 mph - N/A   Mostly Cloudy
5:00 PM 60 °F 48 °F 54% 29.81 in 15 mi NNW 6.9 mph - -   Mostly Cloudy
5:00 PM 60.8 °F 48.2 °F 63% 29.81 in 15.0 mi NNW 6.9 mph - N/A   Mostly Cloudy
6:00 PM 59.0 °F 48.2 °F 67% 29.82 in 15.0 mi NNW 6.9 mph - N/A   Mostly Cloudy
7:00 PM 59.0 °F 46.4 °F 63% 29.84 in 15.0 mi NE 3.5 mph - N/A   Partly Cloudy
8:00 PM 53.6 °F 46.4 °F 77% 29.86 in 15.0 mi Calm Calm - N/A   Partly Cloudy
9:00 PM 50.0 °F 44.6 °F 82% 29.87 in 15.0 mi NNW 4.6 mph - N/A   Mostly Cloudy
10:00 PM 48.2 °F 44.6 °F 87% 29.88 in 15.0 mi Calm Calm - N/A   Scattered Clouds
11:00 PM 47 °F 43 °F 82% 29.88 in 15 mi North 2.3 mph - -   Scattered Clouds
11:00 PM 46.4 °F 42.8 °F 87% 29.88 in 15.0 mi North 2.3 mph - N/A   Partly Cloudy